Regional Weather Roundup
Issued by NWS Wakefield, VA

Home | Current Version | Previous Version | Graphics & Text | Print | Product List | Glossary On
Versions: 1 2 3 4 5 6 7 8 9 10 11 12 13 14 15 16 17 18 19 20 21 22 23 24 25 26 27 28 29 30 31 32 33 34 35 36 37 38 39 40 41 42 43 44 45 46 47 48 49 50
000
ASUS41 KAKQ 291115
RWRAKQ

REGIONAL WEATHER ROUNDUP
NATIONAL WEATHER SERVICE WAKEFIELD VA
700 AM EDT MON JUN 29 2015

Note: "fair" indicates few or no clouds below 12,000 feet with no
significant weather and/or obstructions to visibility. * = Denotes
station may not report precipitation (e.g., rain,snow,etc.),
thunder or fog.

VAZ042-051-052>054-056-291200-
NORTHERN VIRGINIA

CITY           SKY/WX    TMP DP  RH WIND       PRES   REMARKS
WASH NATIONAL  MOSUNNY   66  55  67 SW6       29.97R
DULLES         NOT AVBL
FORT BELVOIR   SUNNY     56  55  96 CALM      29.97R
QUANTICO       MOSUNNY   61  56  83 NW6       29.98R
FREDERICKSBRG* SUNNY     60  60  99 CALM      29.97S
STAFFORD*      SUNNY     54  53  97 CALM      30.02R
WARRENTON      SUNNY     58  58 100 CALM      29.98R
CULPEPER*        N/A     55  55  97 CALM      29.99S
MANASSAS*      SUNNY     57  57 100 CALM      29.98R
LEESBURG*      SUNNY     59  55  88 CALM      29.98R
WINCHESTER     SUNNY     61  52  72 SW6       29.97S
FRONT ROYAL*   FAIR      55  52  88 S6        29.98R
LURAY*         FAIR      59  55  88 S3        30.01R
$$

VAZ048-049-060>072-079>083-291200-
CENTRAL AND SOUTH CENTRAL VIRGINIA

CITY           SKY/WX    TMP DP  RH WIND       PRES   REMARKS
RICHMOND       MOSUNNY   61  58  90 CALM      29.98S
CHESTERFIELD*  NOT AVBL
PETERSBURG*    SUNNY     60  60 100 CALM      30.00R
HANOVER        SUNNY     57  56  96 CALM      30.00S
TAPPAHANNOCK*  MOSUNNY   59  55  88 CALM      29.99R
QUINTON*       FAIR      58  57  96 CALM      29.98S
CHARLOTTSVILLE SUNNY     59  54  83 CALM      30.00R
GORDONSVILLE*  FAIR      55  54  94 CALM      29.99R
ORANGE*        SUNNY     57  54  88 CALM      30.01R
LOUISA*        SUNNY     55  55 100 CALM      29.98S
BUMPASS*       FAIR      56  56  97 CALM      29.99S
FARMVILLE*     PTSUNNY   57  57 100 CALM      29.99R
CREWE*         CLOUDY    57  56  96 CALM      30.00R
FORT PICKETT*  FAIR      60  59  97 CALM      30.00R
CHASE CITY*    CLOUDY    62  62 100 CALM      30.01R
CLARKSVILLE*   PTSUNNY   59  59 100 CALM      29.99S
SOUTH HILL*    SUNNY     61  59  93 CALM      30.06R
LAWRENCEVILLE* NOT AVBL
EMPORIA*       SUNNY     61  61 100 CALM      30.01R
$$

VAZ088>098-291200-
SOUTHEAST VIRGINIA

CITY           SKY/WX    TMP DP  RH WIND       PRES   REMARKS
NORFOLK        SUNNY     70  62  76 CALM      29.98R
VIRGINIA BEACH MOSUNNY   68  63  84 CALM      29.98R
NORFOLK NAVAL  MOSUNNY   67  63  87 CALM      29.99R
WEST POINT*    SUNNY     61  59  92 CALM      29.99S
SALUDA*        FAIR      68  56  65 NW7       29.97S
NEWPORT NEWS   SUNNY     64  60  87 CALM      29.99R
LANGLEY AFB    SUNNY     64  60  87 NW2       29.97R
FORT EUSTIS    SUNNY     70  56  62 N6        29.97R
WILLIAMSBURG*  SUNNY     64  64 100 N3        30.00R
HR EXEC AP*    FAIR      63  59  88 CALM      30.00S
FRANKLIN*      SUNNY     62  61  97 CALM      29.99R
WAKEFIELD      SUNNY     61  59  93 CALM      29.99R
$$

VAZ020-022-025-037-045-291200-
WEST CENTRAL AND SOUTHWEST VIRGINIA

CITY           SKY/WX    TMP DP  RH WIND       PRES   REMARKS
STAUNTON*      SUNNY     56  53  91 CALM      30.04R
WAYNESBORO*    FAIR      54  50  87 SW5       30.02R
HOT SPRINGS VA CLEAR     57  52  85 CALM      30.07R
LYNCHBURG      PTSUNNY   57  55  93 CALM      30.02R
DANVILLE       CLEAR     59  57  93 CALM      30.00R
SOUTH BOSTON*  FAIR      57  56  95 MISG      30.01R
MARTINSVILLE   CLOUDY    56  56 100 CALM      30.04R
ROANOKE        PTCLDY    57  53  86 CALM      30.04R
BLACKSBURG     PTCLDY    52  50  95 CALM      30.07R
DUBLIN*        CLEAR     53  53 100 CALM      30.06R
MARION*        CLEAR     51  50  95 CALM      30.08R
HILLSVILLE*    MOCLDY    52  51  95 SW3       30.08R
RICHLANDS*     FAIR      55  52  88 CALM      30.04S
WISE*          CLEAR     55  46  71 S3        30.05S
ABINGDON*      CLEAR     57  55  92 CALM      30.04R
$$

MDZ021>025-VAZ099-100-291200-
SOUTHERN MARYLAND AND THE DELMARVA PENINSULA

CITY           SKY/WX    TMP DP  RH WIND       PRES   REMARKS
PATUXENT RIVER MOSUNNY   64  54  69 SW5       29.96S
BAY BRIDGE APT   N/A     66  54  63 SW6       29.96R
LEONARDTOWN    NOT AVBL
DOVER          SUNNY     63  60  91 SW8       29.92R
GEORGETOWN     SUNNY     64  56  75 W5        29.96R
EASTON         SUNNY     66  57  72 CALM      29.99R
CAMBRIDGE      SUNNY     63  55  77 CALM      29.96R
SALISBURY      SUNNY     66  55  67 W7        29.95R
OCEAN CITY     SUNNY     64  58  80 W3        29.95R
WALLOPS ISLAND SUNNY     66  59  78 CALM      29.97R
ACCOMACK*      SUNNY     63  61  94 NW3       29.97R
$$

NCZ012>017-030>032-291200-
NORTH CENTRAL AND EASTERN NORTH CAROLINA

CITY           SKY/WX    TMP DP  RH WIND       PRES   REMARKS
ROANOKE RAPIDS FAIR      59  59 100 CALM      29.99R
RALEIGH        MOCLDY    62  60  93 CALM      30.00R
ELIZABETH CITY SUNNY     72  65  78 E5        29.98R
AHOSKIE*       SUNNY     61  59  93 CALM      29.98R
EDENTON*       SUNNY     65  62  91 NE3       29.98R
CURRITUCK*     SUNNY     66  62  87 CALM      29.99R
KILL DEVIL HLS SUNNY     73  65  76 CALM      29.97R
MANTEO         SUNNY     73  67  82 E7        29.98R
CAPE HATTERAS  PTSUNNY   73  67  81 E5        29.97R
TARBORO*         N/A     61  60  97 CALM      29.98R
GOLDSBORO      SUNNY     67  62  85 CALM      29.95
WASHINGTON     SUNNY     64  62  92 CALM      29.97R
GREENVILLE     SUNNY     64  63  94 CALM      29.98S
NEW BERN       PTSUNNY   69  66  90 CALM      29.97R
WILMINGTON     CLOUDY    75  73  93 CALM      29.95R
$$

VAZ048-291200-
ELSEWHERE

CITY           SKY/WX    TMP DP  RH WIND       PRES   REMARKS
HARRISBURG PA  MOSUNNY   61  54  77 CALM      29.93R
BALTIMORE      MOSUNNY   62  54  74 W5        29.95R
ANNAPOLIS      SUNNY     63  54  72 SW7       29.95R
ANDREWS AFB    SUNNY     62  57  82 SW5       29.96R
PHILADELPHIA   MOSUNNY   66  57  72 SW10      29.92R
HENDERSON NC   MOSUNNY   60  57  89 CALM      30.00R
GREENSBORO     PTCLDY    64  54  69 NE3       30.00R
ROCKY MOUNT    SUNNY     63  61  93 CALM      29.98R
$$

VAZ100-291200-
MARINE

STATION/POSITION TIME  TEMP    WIND        PRES    WAVE   SWELL
                       AIR SEA DIR/SP/G            HT/PER HT/PER
                 (UTC) (F)     (DEG/KT/KT) (MB)    (FT/S) (FT/S)
BRANDYWINE LGT   1000   67 72  290/ 16/ 19 1013.5R
CAPE MAY NJ      1000   68 75  290/ 12/ 18 1012.9R
LEWES DE         1000   64 71  250/  6/  7 1013.4R
15NM E FENWICK I 1050   70 72              1013.6R   4/ 8
OCEAN-CITY-INLET 1000   65 72  310/  5/  6 1013.7R
WACHAPREAGUE VA  1000   65 77  310/  1/  2 1014.4R
THOMAS POINT MD  1100   65     240/ 10       N/A
GOOSES REEF MD   1100   71 77  280/ 10/ 12 1015.4R
COVE POINT MD    1000   67     280/  5/  6 1015.0R
SOLOMONS ISLAND  1000      79                N/A
BISHOPS HEAD MD  1000   70     320/  8/ 13 1014.1R
PINEY POINT MD   1000           30/  3/  3   N/A
CAMBRIDGE MD     1000   68 79  250/  5/  7 1014.0R
LEWISETTA VA     1000   67 78  280/  4/  5 1014.5R
RAPPAHANNOCK LGT 1000          320/ 16/ 18 1014.9R
STINGRAY PT      1100   72 79  350/ 12/ 14 1015.0R   2/ 3
YORK RVR RNG VA  1000   72     330/  9/ 10 1014.2R
YORKTOWN VA      1000   70 79  290/  5/  6 1014.5R
JAMESTOWN VA     1100   69 81   10/  2/  4   N/A
DOMINION TERM VA 1000   71      20/  3/  4 1014.5R
KIPTOPEKE VA     1000      81  340/ 14/ 16   N/A
CHES BAY BRIDGE  1000   76 76  320/ 10/ 11 1014.1R
CAPE HENRY VA    1000   75     350/ 11/ 12 1013.1R
CHESAPEAKE LGHT  1000   75     350/ 10/ 11 1015.2R
WILLOUBY STN VA  1000   74     340/  4/  4 1015.5R
CAPE HENRY BUOY  1028      77                N/A     3/ 8
1ST LANDING BUOY 1100      76              1014.8R   2/ 3
CAPE CHARLES BUO 1026      76                N/A     2/ 8   2/ 8
OFFSHORE WE BUOY 1011      77                N/A     4/ 8   3/ 8
64NM E OF VA BCH 1050   75 74  340/  4/  6 1014.6R   4/ 7   3/ 7
DUCK PIER NC     1000   75 67   50/  9/  9 1013.6R
44100 DUCK FRF   1024      76                N/A     3/ 8
44056 DUCK FRF   1011      73                N/A     2/ 8
OREGON INLET NC  1000   72 77   90/  3/  3 1014.4R
HATTERAS NC      1000   78 80  110/  6/  8 1014.0R
DIAMOND SHLS NC  1050   77 81  120/ 10/ 12 1014.3R   4/ 7   3/ 7
CAPE LOOKOUT NC  1100   76     130/ 12/ 12 1014.4R
$$


USA.gov is the U.S. government's official web portal to all federal, state and local government web resources and services.